#timestamp,LO_Frequency,Hit,StdDev 
1503903615.8,286047001.0,N,1.4
1503903635.6,286047000.6,N,1.3
1503903655.4,286047001.0,N,1.2
1503903675.3,286047001.1,N,1.1
1503903695.1,286047000.6,N,1.1
1503903696.0,286047000.6,N,1.0
1503903715.8,286046998.8,N,1.1
1503903735.7,286047000.6,N,1.1
1503903755.5,286047000.9,N,1.0
1503903775.3,286046998.5,N,1.1
1503903795.2,286046998.5,N,1.2
1503903815.0,286047000.8,N,1.1
1503903815.9,286047000.8,N,1.1
1503903835.7,286047000.8,N,1.1
1503903855.6,286047000.0,N,1.1
1503903875.4,286046999.9,N,1.0
1503903895.2,286047000.2,N,1.0
1503903915.1,286047000.1,N,1.0
1503903916.0,286047000.1,N,1.0
1503903935.8,286046999.9,N,1.0
1503903955.7,286047000.7,N,0.9
1503903975.5,286047001.0,N,0.9
1503903995.3,286047000.9,N,0.9
1503904015.2,286047000.2,N,0.9
1503904035.9,286047000.7,N,0.9
1503904055.7,286047001.0,N,0.9
1503904075.6,286047000.8,N,0.8
1503904095.4,286047001.0,N,0.7
1503904115.2,286047000.8,N,0.7
1503904135.1,286047001.0,N,0.7
1503904136.0,286047001.0,N,0.7
1503904155.8,286047000.5,N,0.7
1503904175.6,286047000.3,N,0.7
1503904195.5,286047000.0,N,0.7
1503904215.3,286047002.7,Y,0.0
1503904235.1,286047002.6,P,1.1
1503904255.9,286047002.5,N,1.0
1503904275.7,286047002.8,N,1.0
1503904295.5,286047002.6,N,0.9
1503904315.4,286046999.8,N,1.2
1503904335.2,286046999.8,N,1.3
1503904355.0,286047002.4,N,1.3
1503904355.9,286047002.4,N,1.2
1503904375.8,286047002.3,N,1.2
1503904395.6,286046999.7,N,1.3
1503904415.5,286047000.1,N,1.3
1503904435.3,286047002.4,N,1.3
1503904455.1,286046999.7,N,1.3
1503904475.9,286047000.1,N,1.3
1503904495.7,286047002.7,N,1.3
1503904515.5,286047002.2,N,1.3
1503904535.4,286047002.8,N,1.3
1503904555.2,286046999.7,N,1.3
1503904575.0,286047002.4,N,1.3
1503904575.9,286047002.4,N,1.3
1503904595.8,286047002.2,N,1.3
1503904615.6,286047002.6,N,1.2
1503904635.4,286046999.7,N,1.3
1503904655.3,286047002.6,N,1.3
1503904675.1,286047002.5,N,1.3
1503904695.8,286047002.4,N,1.2
1503904715.7,286047002.3,N,1.2
1503904735.5,286047002.8,N,1.2
1503904755.3,286047000.3,N,1.2
1503904775.2,286046999.7,N,1.3
1503904795.0,286047002.8,N,1.3
1503904795.9,286047002.8,N,1.3
1503904815.8,286047002.6,N,1.3
1503904835.6,286047002.2,N,1.3
1503904855.4,286047001.9,N,1.2
1503904875.3,286047002.1,N,1.2
1503904895.1,286047001.6,N,1.2
1503904896.0,286047001.6,N,1.1
1503904915.8,286047002.6,N,1.2
1503904935.7,286047001.9,N,1.1
1503904955.5,286047001.5,N,1.0
1503904975.3,286047001.4,N,1.0
1503904995.2,286047004.1,Y,0.0
1503905015.0,286047002.4,P,0.3
1503905015.9,286047002.4,P,0.3
1503905035.7,286047002.8,P,0.4
1503905055.6,286047002.4,Y,0.0
1503905075.4,286046998.5,P,1.9
1503905095.3,286046998.5,N,1.8
1503905115.1,286046996.9,N,2.0
1503905116.0,286046996.9,N,2.0
1503905135.8,286046999.2,N,1.8
1503905155.7,286046999.2,N,1.7
1503905175.5,286046997.2,N,1.7
1503905195.3,286046996.5,N,1.7
1503905215.2,286046999.6,N,1.7
1503905235.0,286046999.6,N,1.6
1503905235.9,286046999.6,N,1.6
1503905255.7,286046999.5,N,1.5
1503905275.6,286046998.7,N,1.5
1503905295.4,286047000.6,N,1.5
1503905315.2,286047001.1,N,1.6
1503905335.1,286046998.4,N,1.5
1503905336.0,286046998.4,N,1.5
1503905355.8,286047001.2,N,1.5
1503905375.6,286047001.1,N,1.5
1503905395.5,286047000.9,N,1.6
1503905415.3,286046998.5,N,1.5
1503905435.1,286047000.8,N,1.5
1503905455.9,286047000.4,N,1.5
1503905475.7,286047000.5,N,1.5
1503905495.6,286047000.0,N,1.5
1503905515.4,286047002.5,N,1.6
1503905535.2,286047002.6,N,1.6
1503905555.0,286047002.7,N,1.7
1503905556.0,286047002.7,N,1.8
1503905575.8,286047002.5,N,1.8
1503905595.6,286047002.8,N,1.8
1503905645.5,286047000.9,E,nan
1503905655.4,286047000.1,N,0.0
1503905675.2,286046998.1,P,1.0
1503905695.1,286046998.4,N,0.9
1503905696.0,286046998.4,N,0.8
1503905715.8,286046999.3,N,0.7
1503905735.6,286046998.3,N,0.7
1503905755.5,286047000.3,N,0.8
1503905775.3,286046998.2,N,0.8
1503905795.1,286047000.8,N,1.0
1503905815.9,286046998.5,N,1.0
1503905835.7,286047000.0,N,1.0
1503905855.5,286047000.7,N,1.0
1503905875.4,286047001.2,N,1.1
1503905895.2,286046998.1,N,1.1
1503905915.1,286047000.8,N,1.1
1503905916.0,286047000.8,N,1.2
1503905935.8,286046998.2,N,1.2
1503905955.6,286046998.1,N,1.2
1503905975.5,286047001.2,N,1.2
1503905995.3,286047000.9,N,1.2
1503906015.1,286046998.9,N,1.2
1503906035.9,286046998.1,N,1.2
1503906055.7,286047000.8,N,1.2
1503906075.5,286047001.0,N,1.2
1503906095.4,286047000.7,N,1.2
1503906115.2,286047000.4,N,1.2
1503906135.0,286047000.8,N,1.2
1503906135.9,286047000.8,N,1.2
1503906155.8,286047000.8,N,1.2
1503906175.6,286047000.8,N,1.2
1503906195.4,286047001.0,N,1.2
1503906215.3,286047001.0,N,1.2
1503906235.1,286047001.0,N,1.2
1503906255.8,286047000.7,N,1.1
1503906275.7,286047000.7,N,1.1
1503906295.5,286047000.6,N,1.1
1503906315.3,286047000.6,N,1.1
1503906335.2,286047000.4,N,1.0
1503906355.0,286046999.9,N,1.0
1503906355.9,286046999.9,N,1.0
1503906375.8,286047002.4,N,1.0
1503906395.6,286047000.2,N,1.0
1503906415.4,286047002.0,N,1.1
1503906435.3,286047002.8,N,1.1
1503906455.1,286047002.6,N,1.1
1503906456.0,286047002.6,N,1.2
1503906475.8,286047002.7,N,1.1
1503906495.7,286047001.2,N,1.0
1503906515.5,286046999.6,N,1.0
1503906535.3,286046998.3,N,1.1
1503906555.2,286047000.2,N,1.1
1503906575.9,286047000.2,N,1.0
1503906595.7,286047000.1,N,1.0
1503906615.6,286047000.2,N,1.0
1503906635.4,286047001.9,N,1.0
1503906655.2,286047004.0,Y,0.0
1503906675.1,286046999.7,P,0.6
1503906676.0,286046999.7,N,0.6
1503906695.8,286047002.1,P,1.0
1503906715.7,286047002.4,N,1.1
1503906735.5,286047002.2,N,1.1
1503906755.3,286047001.5,N,1.1
1503906775.2,286047002.7,N,1.1
1503906795.9,286047002.2,N,1.1
1503906815.7,286047002.0,N,1.0
1503906835.6,286047002.2,N,1.0
1503906855.4,286047001.5,N,1.0
1503906875.2,286047000.2,N,1.0
1503906895.1,286047000.2,N,1.0
1503906896.0,286047000.2,N,1.0
1503906915.8,286047000.4,N,1.0
1503906935.6,286046999.9,N,1.0
1503906955.5,286047000.2,N,1.0
1503906975.3,286047000.4,N,1.0
1503906995.1,286047000.4,N,1.0
1503907015.9,286047002.4,N,1.0
1503907035.7,286047002.4,N,1.0
1503907055.5,286047002.5,N,1.0
1503907075.4,286046999.7,N,1.1
1503907095.2,286047000.2,N,1.1
1503907115.0,286046999.7,N,1.1
1503907115.9,286046999.7,N,1.1
1503907135.8,286047002.3,N,1.1
1503907155.6,286047002.3,N,1.1
1503907175.5,286047002.3,N,1.1
1503907195.3,286046999.8,N,1.1
